Location: Boiro
(42.6475°N, 8.8834°W)
Time: 20:46:23
(UTC+02:00)

AO-73 - Pass Details

Date: 25 April 2024
Orbit: 560 x 625 km, 97.7° (Epoch: 20 May)

Event Time Altitude Azimuth Distance (km) Brightness Sun altitude
Rises 04:36:48 0° 31° (NNE) 2,921 ? -27.3°
Reaches altitude 10° 04:39:50 10° 54° (NE) 2,011 ? -27.0°
Maximum altitude 04:42:28 16° 91° (E) 1,672 ? -26.7°
Enters shadow 04:44:30 12° 121° (ESE) 1,880 ? -26.5°
